Weather in Rouen

France     49°26′29″N   1°05′06″E
temp.,
°C
wind,
m/s
gust,
m/s
humid.,
%
clouds,
%
prec.,
mm/h
press.,
hPa
HPBL,
m
15 august, mon
mon1523:00+17wsw2290100 1.7 100632
02:00+17ssw2493100 2.8 100577
05:00+15s2494100 0.0 100566
08:00+16s379339 0.0 1005288
11:00+22ssw45603 0.0 1005924
14:00+27ssw443695 0.0 10031985
17:00+27w6537100 0.1 10031755
20:00+25w554345 0.1 1004850
16 august, tue
tue1623:00+18n227232 0.0 100616
02:00+16wsw008699 0.1 100611
05:00+16ese0190100 0.4 100611
08:00+17ssw2387100 0.4 1007103
11:00+21sw3565100 0.0 1008642
14:00+24wsw4541100 0.0 10081355
17:00+26sw243692 0.0 10081781
20:00+24n4644100 0.1 1007254
17 august, wed
wed1723:00+16ese1189100 2.8 101013
02:00+16ene2391100 6.6 100959
05:00+16ese239295 0.0 100955
08:00+16se25935 0.1 1010167
11:00+22se34625 0.0 1011677
14:00+27sse334126 0.0 10101822
17:00+24nne3555100 1.3 1009840
20:00+16n5990100 24.1 1012186
18 august, thu
thu1823:00+16ne269596 0.3 1013139
02:00+16e11972 0.3 101316
05:00+15n11960 0.0 101312
08:00+16wnw11954 0.0 101566
11:00+21nw227520 0.0 1015676
14:00+25nw3254100 0.0 10151547
17:00+23nw666957 0.4 1015768
20:00+21nw567468 0.4 1015577
19 august, fri
fri1923:00+16nw369516 0.0 1017133
02:00+15wnw379621 0.0 1017168
05:00+14w269524 0.0 1017129
08:00+18w3893100 0.0 1017533
11:00+20w5782100 0.4 1018794
14:00+21wnw577118 1.6 10191073
17:00+23wnw67445 0.0 10191233
20:00+18wnw465367 0.0 1020311